Weather History for Pensacola NAS, FL

Change the Weather History Date:

Monday, December 31, 2012

  Actual Average Record
Temperature  
Mean Temperature 50 °F -  
Max Temperature 60 °F 58 °F 71 °F (1996)
Min Temperature 39 °F 39 °F 23 °F (2000)
Degree Days  
Heating Degree Days 16    
Moisture  
Dew Point 45 °F    
Average Humidity 80    
Maximum Humidity 100    
Minimum Humidity 67    
Precipitation  
Precipitation 0.00 in - - ()
Sea Level Pressure  
Sea Level Pressure 30.25 in    
Wind  
Wind Speed 7 mph (NE)    
Max Wind Speed 10 mph    
Max Gust Speed -    
Visibility 10 miles    
Events      
Averages and records for this station are not official NWS values.
T = Trace of Precipitation, MM = Missing Value Source: NWS Daily Summary

Daily Weather History Graph

Daily Weather History Graph

Search for Another Location

Airport:

Trip Planner

Search our weather history database for the weather conditions in past years. The results will help you decide how hot, cold, wet, or windy it might be!

Date:

Astronomy

Dec. 31, 2012 Rise Set
Actual Time 6:45 AM CST 4:59 PM CST
Civil Twilight 6:19 AM CST 5:25 PM CST
Nautical Twilight 5:49 AM CST 5:55 PM CST
Astronomical Twilight 5:20 AM CST 6:25 PM CST
Moon 8:14 PM CST (12/31) 8:40 AM CST (12/31)
Length of Visible Light 11h 06m
Length of Day
10h 13m
Waning Gibbous, 90% of the Moon is Illuminated
Dec 31
Waning Gibbous
Jan 4
Last Quarter
Jan 11
New
Jan 18
First Quarter
Jan 26
Full

Hourly Weather History & Observations

Time (CST) Temp. Windchill Dew Point Humidity Pressure Visibility Wind Dir Wind Speed Gust Speed Precip Events Conditions
12:56 AM 39.0 °F 34.0 °F 32.0 °F 76% 30.35 in 10.0 mi NNE 6.9 mph - N/A   Clear
1:56 AM 39.9 °F 35.1 °F 32.0 °F 73% 30.33 in 10.0 mi NE 6.9 mph - N/A   Clear
2:56 AM 41.0 °F 35.8 °F 33.1 °F 73% 30.32 in 10.0 mi NE 8.1 mph - N/A   Clear
3:56 AM 41.0 °F 35.8 °F 34.0 °F 76% 30.31 in 10.0 mi NE 8.1 mph - N/A   Clear
4:56 AM 39.9 °F 35.8 °F 34.0 °F 79% 30.33 in 10.0 mi North 5.8 mph - N/A   Clear
5:56 AM 39.9 °F 35.8 °F 34.0 °F 79% 30.30 in 10.0 mi NE 5.8 mph - N/A   Mostly Cloudy
6:56 AM 42.1 °F 37.1 °F 36.0 °F 79% 30.30 in 10.0 mi NE 8.1 mph - N/A   Mostly Cloudy
7:56 AM 45.0 °F 40.6 °F 39.0 °F 80% 30.32 in 10.0 mi NNE 8.1 mph - N/A   Mostly Cloudy
8:56 AM 50.0 °F - 42.1 °F 74% 30.33 in 10.0 mi NNE 6.9 mph - N/A   Mostly Cloudy
9:56 AM 54.0 °F - 45.0 °F 72% 30.32 in 10.0 mi NNE 9.2 mph - N/A   Mostly Cloudy
10:56 AM 55.9 °F - 46.9 °F 72% 30.32 in 10.0 mi North 8.1 mph - N/A   Mostly Cloudy
11:09 AM 55.4 °F - 46.4 °F 72% 30.31 in 10.0 mi NNE 6.9 mph - N/A   Overcast
11:56 AM 60.1 °F - 48.9 °F 67% 30.29 in 10.0 mi NE 8.1 mph - N/A   Mostly Cloudy
12:56 PM 59.0 °F - 50.0 °F 72% 30.24 in 10.0 mi East 9.2 mph - N/A   Mostly Cloudy
1:56 PM 60.1 °F - 50.0 °F 69% 30.22 in 10.0 mi NE 9.2 mph - N/A   Mostly Cloudy
2:56 PM 60.1 °F - 51.1 °F 72% 30.20 in 10.0 mi East 8.1 mph - N/A   Overcast
3:56 PM 59.0 °F - 51.1 °F 75% 30.20 in 10.0 mi ENE 6.9 mph - N/A   Overcast
4:56 PM 57.9 °F - 52.0 °F 81% 30.19 in 10.0 mi NE 4.6 mph - N/A   Overcast
5:56 PM 57.9 °F - 54.0 °F 87% 30.20 in 10.0 mi NNE 3.5 mph - N/A   Overcast
6:56 PM 57.9 °F - 54.0 °F 87% 30.19 in 10.0 mi ENE 9.2 mph - N/A   Overcast
7:56 PM 57.0 °F - 53.1 °F 87% 30.18 in 10.0 mi ENE 10.4 mph - N/A   Scattered Clouds
8:56 PM 55.0 °F - 53.1 °F 93% 30.18 in 10.0 mi ENE 3.5 mph - N/A   Scattered Clouds
9:56 PM 54.0 °F - 54.0 °F 100% 30.16 in 10.0 mi ENE 4.6 mph - N/A   Mostly Cloudy
10:56 PM 55.9 °F - 55.0 °F 97% 30.14 in 7.0 mi East 4.6 mph - N/A   Mostly Cloudy
11:56 PM 55.9 °F - 55.0 °F 97% 30.12 in 6.0 mi Calm Calm - N/A   Scattered Clouds